Location: Edinburgh
(55.9500°N, 3.1600°W)
Time: 21:41:20
(UTC+01:00)

BlueWalker 3 - Visible Passes

Search period start: 19 May 2025 00:00
Search period end: 29 May 2025 00:00
Orbit: 461 x 473 km, 53.2° (Epoch: 19 May)

Date Brightness Start Highest point End Pass type
(mag) Time Alt. Az. Time Alt. Az. Time Alt. Az.
19 May 4.1 23:42:07 10° WSW 23:43:07 11° SW 23:44:08 10° SSW visible
20 May 4.1 23:09:38 10° WSW 23:11:15 13° SW 23:12:53 10° SSW visible
21 May 4.0 22:37:21 10° WSW 22:39:23 14° SW 22:41:24 10° S visible
